Regional Weather Roundup
Issued by NWS Little Rock, AR

Home | Current Version | Previous Version | Graphics & Text | Print | Product List | Glossary Off
Versions: 1 2 3 4 5 6 7 8 9 10 11 12 13 14 15 16 17 18 19 20 21 22 23 24 25 26 27 28 29 30 31 32 33 34 35 36 37 38 39 40 41 42 43 44 45 46 47 48 49 50

000
ASUS44 KLZK 252305
RWRLZK

WEATHER ROUNDUP FOR ARKANSAS
NATIONAL WEATHER SERVICE LITTLE ROCK AR
600 PM CDT TUE APR 25 2017

NOTE: "FAIR" INDICATES FEW OR NO CLOUDS BELOW 12,000 FEET WITH NO
SIGNIFICANT WEATHER AND/OR OBSTRUCTIONS TO VISIBILITY.

ARZ001-003-010-029-260000-
NORTHWEST ARKANSAS

CITY           SKY/WX    TMP DP  RH WIND       PRES   REMARKS
FAYETTEVILLE   MOSUNNY   77  62  59 S16G24    29.46S
FORT SMITH     CLOUDY    80  60  50 S10       29.45S
HARRISON       LGT RAIN  78  60  53 S15G23    29.49R
BENTONVILLE    MOSUNNY   77  61  57 SW13G22   29.48R
ROGERS         PTSUNNY   77  62  59 SW15G24   29.47R
SILOAM SPGS    MOSUNNY   73  57  56 S21       29.47R
HIGHFILL       MOSUNNY   76  59  55 S14G30    29.46R
SPRINGDALE     MOSUNNY   77  61  57 S18G29    29.48S
$$

ARZ004-005-016-260000-
NORTH CENTRAL ARKANSAS

CITY           SKY/WX    TMP DP  RH WIND       PRES   REMARKS
BATESVILLE     MOSUNNY  N/A N/A N/A S9G21     29.55R
FLIPPIN        MOSUNNY  N/A N/A N/A S9G22     29.45S
MTN HOME       CLOUDY    76  56  49 S12G22    29.48S
$$

ARZ040-041-260000-
WEST CENTRAL ARKANSAS

CITY           SKY/WX    TMP DP  RH WIND       PRES   REMARKS
MENA           PTSUNNY   79  66  65 SW3       29.52S
MOUNT IDA      MOSUNNY   80  61  52 VRB3      29.51S
$$

ARZ009-017-025-026-028-260000-
NORTHEAST ARKANSAS

CITY           SKY/WX    TMP DP  RH WIND       PRES   REMARKS
CORNING        LGT RAIN  79  55  44 S16G26    29.55F
JONESBORO      SUNNY     79  50  36 S22G30    29.56F
NEWPORT        SUNNY     79  50  36 S26G32    29.54F
WALNUT RIDGE   SUNNY     79  52  38 CALM      29.54F
BLYTHEVILLE    SUNNY     79  53  40 S14       29.59F
$$

ARZ022-023-033-042-044-260000-
CENTRAL ARKANSAS

CITY           SKY/WX    TMP DP  RH WIND       PRES   REMARKS
LITTLE ROCK    MOSUNNY   80  61  52 S13       29.54F
N LITTLE ROCK    N/A     80  60  51 S10G25    29.54S
JACKSONVILLE   SUNNY     82  60  47 S13G23    29.53F
CONWAY           N/A     81  61  50 S14G22    29.50F
SEARCY         SUNNY     80  56  43 S15       29.56S
HOT SPRINGS    SUNNY     81  62  52 S10G17    29.53F
RUSSELLVILLE   PTSUNNY   81  61  50 S9        29.49S
$$

ARZ036-260000-
EAST ARKANSAS

CITY           SKY/WX    TMP DP  RH WIND       PRES   REMARKS
WEST MEMPHIS   SUNNY     78  55  44 S17       29.59S
$$

ARZ050-053-066-070-073-260000-
SOUTHWEST ARKANSAS

CITY           SKY/WX    TMP DP  RH WIND       PRES   REMARKS
ARKADELPHIA      N/A     81  64  56 S14       29.53F
CAMDEN         SUNNY     82  57  42 S9        29.55S
TEXARKANA      PTSUNNY   79  65  62 S17G25    29.53F
EL DORADO        N/A    N/A N/A N/A MISG      29.57S
DE QUEEN       PTSUNNY   79  67  66 S7        29.48F
$$

ARZ056-057-069-260000-
SOUTHEAST ARKANSAS

CITY           SKY/WX    TMP DP  RH WIND       PRES   REMARKS
PINE BLUFF     SUNNY     80  60  50 S13G22    29.57S
STUTTGART      SUNNY     82  50  32 S23       29.57S
MONTICELLO     SUNNY     81  57  43 S13G23    29.59F

$$





USA.gov is the U.S. government's official web portal to all federal, state and local government web resources and services.